CW8095 Weather Reports


Display with metric or nautical units.
time (UTC)temp
F
wind
direction
speed
MPH
gust
MPH
rain 1hr
in
rain 24hr
in
rain mn
in
humidity
%
barometer
mb
20260901170028 94 194 1.0 7.0 0.00 0.00 0.00 33 1017.2
20260901165023 94 132 3.0 7.0 0.00 0.00 0.00 34 1017.3
20260901164059 94 146 2.0 6.0 0.00 0.00 0.00 35 1017.4
20260901163028 94 244 1.0 3.0 0.00 0.00 0.00 35 1017.6
20260901162023 92 163 2.0 7.0 0.00 0.00 0.00 36 1017.6
20260901161018 92 146 2.0 6.0 0.00 0.00 0.00 37 1017.5
20260901160028 91 167 2.0 7.0 0.00 0.00 0.00 38 1017.6
20260901155023 91 161 2.0 8.0 0.00 0.00 0.00 38 1017.5
20260901154018 89 171 2.0 7.0 0.00 0.00 0.00 40 1017.5
20260901153028 88 227 1.0 3.0 0.00 0.00 0.00 42 1017.5
20260901152023 89 156 3.0 9.0 0.00 0.00 0.00 41 1017.4
20260901151019 88 161 1.0 4.0 0.00 0.00 0.00 45 1017.6
20260901150028 86 144 1.0 3.0 0.00 0.00 0.00 46 1017.5
20260901145024 85 159 1.0 4.0 0.00 0.00 0.00 49 1017.5
20260901144019 84 160 1.0 4.0 0.00 0.00 0.00 50 1017.6
20260901143029 83 167 1.0 4.0 0.00 0.00 0.00 51 1017.7
20260901142024 82 191 0.0 1.0 0.00 0.00 0.00 54 1017.7
20260901141019 81 163 1.0 4.0 0.00 0.00 0.00 56 1017.7
20260901140049 79 174 2.0 6.0 0.00 0.00 0.00 58 1017.7
20260901135024 78 151 2.0 6.0 0.00 0.00 0.00 60 1017.7
20260901134020 77 154 1.0 3.0 0.00 0.00 0.00 62 1017.7
20260901133030 76 152 1.0 4.0 0.00 0.00 0.00 63 1017.6
20260901132025 75 153 2.0 6.0 0.00 0.00 0.00 64 1017.6
20260901131020 74 160 0.0 1.0 0.00 0.00 0.00 63 1017.5
20260901130030 74 160 0.0 1.0 0.00 0.00 0.00 63 1017.5
20260901125025 73 160 0.0 1.0 0.00 0.00 0.00 64 1017.1
20260901124021 73 160 0.0 1.0 0.00 0.00 0.00 64 1017.0
20260901123015 73 160 0.0 1.0 0.00 0.00 0.00 64 1017.1
20260901122026 72 160 0.0 1.0 0.00 0.00 0.00 64 1016.9
20260901121020 72 160 1.0 2.0 0.00 0.00 0.00 64 1016.7
20260901120015 72 0.0 0.0 0.00 0.00 0.00 64 1016.7
20260901115025 72 160 0.0 2.0 0.00 0.00 0.00 64 1016.5
20260901114021 72 160 0.0 2.0 0.00 0.00 0.00 64 1016.6
20260901113016 72 160 1.0 2.0 0.00 0.00 0.00 63 1016.5
20260901112025 73 145 0.0 2.0 0.00 0.00 0.00 62 1016.4
20260901111020 73 137 0.0 1.0 0.00 0.00 0.00 62 1016.4
20260901110035 73 140 1.0 3.0 0.00 0.00 0.00 61 1016.2
20260901105025 73 160 1.0 3.0 0.00 0.00 0.00 61 1016.2
20260901104020 73 164 1.0 2.0 0.00 0.00 0.00 62 1016.2
20260901103015 73 165 0.0 1.0 0.00 0.00 0.00 62 1016.2
20260901102025 73 0.0 0.0 0.00 0.00 0.00 62 1016.2
20260901101021 74 164 0.0 2.0 0.00 0.00 0.00 60 1016.3
20260901100016 74 165 1.0 3.0 0.00 0.00 0.00 59 1016.2
20260901095026 74 166 1.0 2.0 0.00 0.00 0.00 58 1016.2
20260901093524 74 161 0.0 1.0 0.00 0.00 0.00 57 1016.2
20260901093027 75 165 1.0 3.0 0.00 0.00 0.00 57 1016.3
20260901092023 75 156 1.0 3.0 0.00 0.00 0.00 57 1016.4
20260901091018 75 161 2.0 4.0 0.00 0.00 0.00 56 1016.3
20260901090029 75 169 1.0 4.0 0.00 0.00 0.00 56 1016.3
20260901085024 76 164 1.0 2.0 0.00 0.00 0.00 55 1016.0
20260901084040 76 166 1.0 4.0 0.00 0.00 0.00 55 1016.2
20260901083036 76 162 2.0 4.0 0.00 0.00 0.00 54 1016.2
20260901082026 77 162 2.0 6.0 0.00 0.00 0.00 53 1016.2
20260901081022 77 154 2.0 4.0 0.00 0.00 0.00 53 1016.2
20260901080017 77 144 2.0 6.0 0.00 0.00 0.00 52 1016.1
20260901075026 78 161 3.0 9.0 0.00 0.00 0.00 51 1016.2
20260901074030 78 144 2.0 7.0 0.00 0.00 0.00 51 1016.2
20260901073032 78 162 2.0 8.0 0.00 0.00 0.00 51 1016.1
20260901072028 78 148 3.0 7.0 0.00 0.00 0.00 50 1016.1
20260901071025 78 153 2.0 7.0 0.00 0.00 0.00 49 1016.0
20260901070022 78 153 3.0 8.0 0.00 0.00 0.00 48 1015.9
20260901065044 78 125 2.0 4.0 0.00 0.00 0.00 47 1015.8
20260901064034 78 136 1.0 3.0 0.00 0.00 0.00 45 1015.7
20260901063035 78 142 1.0 2.0 0.00 0.00 0.00 45 1015.5
20260901062025 78 156 2.0 4.0 0.00 0.00 0.00 45 1015.5
20260901061110 78 142 2.0 6.0 0.00 0.00 0.00 44 1015.5
20260901060029 78 128 2.0 7.0 0.00 0.00 0.00 43 1015.3
20260901055033 78 126 2.0 4.0 0.00 0.00 0.00 43 1015.3
20260901054024 78 134 1.0 2.0 0.00 0.00 0.00 42 1015.1
20260901053058 78 130 1.0 4.0 0.00 0.00 0.00 42 1015.1
20260901052033 78 123 1.0 3.0 0.00 0.00 0.00 41 1015.0
20260901051043 78 138 1.0 4.0 0.00 0.00 0.00 41 1015.0
20260901050024 78 152 1.0 2.0 0.00 0.00 0.00 41 1014.8
20260901045027 79 152 0.0 2.0 0.00 0.00 0.00 40 1014.8
20260901044017 79 152 0.0 1.0 0.00 0.00 0.00 39 1014.9
20260901043031 79 152 0.0 2.0 0.00 0.00 0.00 38 1014.7
20260901042029 80 152 1.0 2.0 0.00 0.00 0.00 38 1014.8
20260901041108 80 152 0.0 2.0 0.00 0.00 0.00 37 1014.7
20260901040041 80 154 0.0 2.0 0.00 0.00 0.00 37 1014.9
20260901035050 81 148 0.0 2.0 0.00 0.00 0.00 36 1014.9
20260901034024 81 145 0.0 1.0 0.00 0.00 0.00 35 1014.9
20260901033020 81 145 0.0 2.0 0.00 0.00 0.00 35 1014.9
20260901032027 82 138 1.0 3.0 0.00 0.00 0.00 34 1014.8
20260901031023 82 132 1.0 2.0 0.00 0.00 0.00 33 1014.7
20260901030043 83 129 1.0 3.0 0.00 0.00 0.00 32 1014.6
20260901025019 83 148 2.0 3.0 0.00 0.00 0.00 32 1014.4
20260901024030 83 148 1.0 4.0 0.00 0.00 0.00 31 1014.5
20260901023025 84 133 1.0 3.0 0.00 0.00 0.00 30 1014.3
20260901022121 84 140 1.0 3.0 0.00 0.00 0.00 30 1014.2
20260901021016 85 136 1.0 4.0 0.00 0.00 0.00 30 1014.1
20260901015530 86 135 1.0 3.0 0.00 0.00 0.00 29 1013.9
20260901014546 86 142 1.0 3.0 0.00 0.00 0.00 29 1013.7
20260901013521 86 131 2.0 4.0 0.00 0.00 0.00 28 1013.8
20260901012537 87 126 2.0 4.0 0.00 0.00 0.00 28 1013.8
20260901011527 88 130 2.0 7.0 0.00 0.00 0.00 28 1013.7
20260901010543 88 134 2.0 4.0 0.00 0.00 0.00 27 1013.6
20260901005559 89 126 3.0 4.0 0.00 0.00 0.00 27 1013.5
20260901004530 89 149 2.0 7.0 0.00 0.00 0.00 27 1013.6
20260901003526 90 129 2.0 6.0 0.00 0.00 0.00 27 1013.6
20260901002521 91 136 2.0 6.0 0.00 0.00 0.00 26 1013.5
20260901001517 92 127 2.0 7.0 0.00 0.00 0.00 25 1013.4
20260901000528 92 118 4.0 9.0 0.00 0.00 0.00 26 1013.5
20260831235523 93 109 4.0 10.0 0.00 0.00 0.00 26 1013.4
20260831234519 93 128 4.0 7.0 0.00 0.00 0.00 25 1013.6
20260831233541 94 133 3.0 8.0 0.00 0.00 0.00 25 1013.5
20260831232530 94 146 3.0 7.0 0.00 0.00 0.00 25 1013.6
20260831231524 94 145 2.0 7.0 0.00 0.00 0.00 25 1013.5
20260831230519 94 110 5.0 9.0 0.00 0.00 0.00 24 1013.6
20260831225549 95 133 4.0 9.0 0.00 0.00 0.00 24 1013.6
20260831224524 95 109 6.0 11.0 0.00 0.00 0.00 25 1013.6
20260831223519 94 136 3.0 9.0 0.00 0.00 0.00 26 1013.7
20260831222529 95 128 3.0 10.0 0.00 0.00 0.00 25 1013.8
20260831221524 97 139 4.0 10.0 0.00 0.00 0.00 24 1013.9
20260831220519 95 141 3.0 9.0 0.00 0.00 0.00 25 1013.8
20260831215529 97 157 3.0 7.0 0.00 0.00 0.00 23 1013.9
20260831214524 99 148 3.0 7.0 0.00 0.00 0.00 22 1014.1
20260831213519 99 174 3.0 7.0 0.00 0.00 0.00 22 1014.1
20260831212529 100 130 4.0 9.0 0.00 0.00 0.00 21 1014.2
20260831211524 99 109 4.0 9.0 0.00 0.00 0.00 22 1014.3
20260831210519 98 137 4.0 11.0 0.00 0.00 0.00 22 1014.4
20260831205530 98 109 5.0 9.0 0.00 0.00 0.00 22 1014.6
20260831204524 99 94 5.0 9.0 0.00 0.00 0.00 23 1014.7
20260831203519 98 130 6.0 10.0 0.00 0.00 0.00 23 1015.0
20260831202530 99 124 7.0 13.0 0.00 0.00 0.00 23 1015.0
20260831201545 100 127 5.0 10.0 0.00 0.00 0.00 22 1015.2
20260831200520 100 139 3.0 7.0 0.00 0.00 0.00 21 1015.2
20260831195550 99 128 2.0 7.0 0.00 0.00 0.00 23 1015.4
20260831194524 98 145 5.0 13.0 0.00 0.00 0.00 24 1015.5
20260831193519 97 119 4.0 11.0 0.00 0.00 0.00 25 1015.7
20260831192529 95 145 3.0 7.0 0.00 0.00 0.00 26 1015.8
20260831191524 95 140 7.0 16.0 0.00 0.00 0.00 26 1015.9
20260831190519 96 115 5.0 10.0 0.00 0.00 0.00 26 1016.0
20260831185529 98 143 3.0 11.0 0.00 0.00 0.00 25 1016.0
20260831184604 100 127 6.0 10.0 0.00 0.00 0.00 24 1016.1
20260831183539 99 147 4.0 9.0 0.00 0.00 0.00 25 1016.1
20260831182529 99 157 4.0 13.0 0.00 0.00 0.00 26 1016.4
20260831181524 98 135 3.0 9.0 0.00 0.00 0.00 27 1016.6
20260831180519 98 126 4.0 11.0 0.00 0.00 0.00 27 1016.8
20260831175530 98 152 2.0 6.0 0.00 0.00 0.00 28 1016.9
20260831174525 96 124 3.0 8.0 0.00 0.00 0.00 29 1017.2
20260831173520 96 163 3.0 7.0 0.00 0.00 0.00 29 1017.3
20260831172530 96 126 4.0 8.0 0.00 0.00 0.00 29 1017.4
20260831171525 96 134 5.0 10.0 0.00 0.00 0.00 28 1017.5